Location: Asheville, NC
(35.6000°N, 82.5500°W)
Time: 17:06:51
(UTC-04:00)

Vanguard 2 Rocket - Pass Details

Date: 17 February 2018
Orbit: 554 x 3327 km, 32.9° (Epoch: 22 May)

Event Time Altitude Azimuth Distance (km) Brightness Sun altitude
Rises 23:34:48 0° 237° (WSW) 5,097 - -61.4°
Reaches altitude 10° 23:37:39 10° 234° (SW) 4,410 - -61.7°
Maximum altitude 23:50:47 65° 156° (SSE) 2,973 - -63.2°
Exits shadow 00:10:10 11° 81° (E) 6,236 11.0 -64.8°
Drops below altitude 10° 00:10:24 10° 81° (E) 6,286 11.0 -64.9°
Sets 00:15:24 0° 79° (E) 7,296 11.5 -65.2°
